Location: Tucson
(32.2217°N, 110.9265°W)
Time: 04:34:41
(UTC-07:00)

Hubble Space Telescope - Visible Passes

Search period start: 08 December 2019 00:00
Search period end: 18 December 2019 00:00
Orbit: 536 x 540 km, 28.5° (Epoch: 07 December)

Date Brightness Start Highest point End Pass type
(mag) Time Alt. Az. Time Alt. Az. Time Alt. Az.
11 Dec 3.3 06:43:45 10° SSW 06:46:49 20° SSE 06:49:53 10° ESE visible
12 Dec 2.9 06:32:47 10° SW 06:36:09 24° SSE 06:39:30 10° ESE visible
13 Dec 2.6 06:21:55 10° SW 06:25:28 28° SSE 06:29:03 10° ESE visible
14 Dec 3.8 04:35:04 12° SE 04:35:04 12° SE 04:35:53 10° SE visible
14 Dec 2.3 06:11:06 10° SW 06:14:49 33° SSE 06:18:33 10° ESE visible
15 Dec 3.9 04:25:33 11° SE 04:25:33 11° SE 04:25:56 10° ESE visible
15 Dec 2.0 06:00:54 13° SW 06:04:10 37° SSE 06:08:00 10° E visible
16 Dec 1.7 05:51:15 21° SW 05:53:32 41° S 05:57:26 10° E visible
17 Dec 1.5 05:41:30 32° SW 05:42:54 45° S 05:46:52 10° E visible
